This is the latest recevied weather packets stored in our database for station/object N3FAA. If no packets are shown the sender has not sent any weather packets the latest 1 day(s).
| Time | Temp. | Humidity | Pressure | Rain* | Wind** | Luminosity | Snow |
|---|---|---|---|---|---|---|---|
| 1778006568 | 16.11° C | 52% | 1010.4 hPa | 0 mm | 4.47 m/s, 249° | 295 W/m² | - |
| 1778006265 | 15.56° C | 54% | 1010.5 hPa | 0 mm | 2.24 m/s, 215° | 350 W/m² | - |
| 1778005962 | 15° C | 54% | 1010.6 hPa | 0 mm | 4.92 m/s, 258° | 276 W/m² | - |
| 1778005659 | 15.56° C | 54% | 1010.6 hPa | 0 mm | 3.58 m/s, 250° | 255 W/m² | - |
| 1778005355 | 16.11° C | 51% | 1010.4 hPa | 0 mm | 4.92 m/s, 279° | 270 W/m² | - |
| 1778005052 | 15.56° C | 51% | 1010.3 hPa | 0 mm | 3.13 m/s, 259° | 577 W/m² | - |
| 1778004750 | 16.11° C | 52% | 1010.3 hPa | 0 mm | 4.92 m/s, 230° | 290 W/m² | - |
| 1778004446 | 16.11° C | 52% | 1010.3 hPa | 0 mm | 2.24 m/s, 249° | 306 W/m² | - |
| 1778004143 | 16.67° C | 51% | 1009.9 hPa | 0 mm | 3.58 m/s, 255° | 1056 W/m² | - |
| 1778003839 | 16.67° C | 49% | 1010.3 hPa | 0 mm | 4.47 m/s, 251° | 344 W/m² | - |
| 1778003536 | 16.11° C | 52% | 1010.1 hPa | 0 mm | 0.45 m/s, 264° | 1205 W/m² | - |
| 1778003232 | 15.56° C | 54% | 1010.2 hPa | 0 mm | 4.02 m/s, 278° | 651 W/m² | - |
| 1778002929 | 16.11° C | 53% | 1010.1 hPa | 0 mm | 0.89 m/s, 228° | 290 W/m² | - |
| 1778002625 | 16.11° C | 53% | 1010 hPa | 0 mm | 1.34 m/s, 249° | 1045 W/m² | - |
| 1778002322 | 16.11° C | 52% | 1010.1 hPa | 0 mm | 3.13 m/s, 236° | 877 W/m² | - |
| 1778002019 | 15.56° C | 55% | 1010.3 hPa | 0 mm | 2.68 m/s, 247° | 848 W/m² | - |
| 1778001716 | 15.56° C | 55% | 1010.3 hPa | 0 mm | 3.58 m/s, 246° | 843 W/m² | - |
| 1778001415 | 15° C | 56% | 1010 hPa | 0 mm | 4.47 m/s, 228° | 861 W/m² | - |
| 1778001113 | 15° C | 57% | 1010 hPa | 0 mm | 4.47 m/s, 254° | 918 W/m² | - |
| 1778000810 | 14.44° C | 59% | 1010.3 hPa | 0 mm | 4.02 m/s, 237° | 930 W/m² | - |
| 1778000506 | 14.44° C | 61% | 1010.2 hPa | 0 mm | 3.58 m/s, 245° | 308 W/m² | - |
| 1778000206 | 13.89° C | 62% | 1010 hPa | 0 mm | 4.47 m/s, 239° | 343 W/m² | - |
| 1777999903 | 13.89° C | 61% | 1010.3 hPa | 0 mm | 4.02 m/s, 245° | 357 W/m² | - |
| 1777999598 | 13.33° C | 63% | 1010.1 hPa | 0 mm | 3.13 m/s, 253° | 630 W/m² | - |
| 1777999296 | 13.89° C | 62% | 1010.1 hPa | 0 mm | 4.92 m/s, 246° | 256 W/m² | - |
* Rain latest hour (hover to see other rain measurements)
** Current wind speed in m/s (hover to see current wind gust speed)